Regional Weather Roundup
Issued by NWS

Home | Current Version | Previous Version | Graphics & Text | Print | Product List | Glossary On
Versions: 1 2 3 4 5 6 7 8 9 10 11 12 13 14 15 16 17 18 19 20 21 22 23 24 25 26 27 28 29 30 31 32 33 34 35 36 37 38 39 40 41 42 43 44 45 46 47 48 49 50
000
ASUS43 KIND 160509
RWRIN

WEATHER ROUNDUP FOR INDIANA
NATIONAL WEATHER SERVICE INDIANAPOLIS IN
1200 AM EST MON JAN 16 2017

NOTE: "FAIR" INDICATES FEW OR NO CLOUDS BELOW 12,000 FEET WITH NO
SIGNIFICANT WEATHER AND/OR OBSTRUCTIONS TO VISIBILITY.

* - STATION DOES NOT REPORT WEATHER SUCH AS PRECIPITATION OR FOG.

+ - STATION NOT QUALITY CONTROLLED BY THE NATIONAL WEATHER SERVICE.
    USE DATA WITH CAUTION...ESPECIALLY DEWPOINT AND RELATIVE
    HUMIDITY OBSERVATIONS.

INZ001>003-010>013-019-020-160600-
NORTHWEST INDIANA

CITY           SKY/WX    TMP DP  RH WIND       PRES   REMARKS
GARY /AIRPORT/ CLOUDY    32  27  81 E3        30.32S
KNOX *+        CLOUDY    32  12  43 E5        30.30F WCI  27
LA PORTE +     MOCLDY    31  27  87 E5        30.31F WCI  26
MICHIGAN CITY+ CLOUDY    30  27  86 CALM      30.32F
MONTICELLO +   CLOUDY    32  28  83 CALM      30.31R
RENSSELAER +     N/A     32  30  93 E6        30.31F WCI  26
VALPARAISO     PTCLDY    32  29  88 E6        30.31F FOG     WCI  26

$$

LMZ046-743>745-160600-
SOUTHERN LAKE MICHIGAN

STATION/POSITION TIME  TEMP    WIND        PRES    WAVE
                       AIR SEA DIR/SP/G            HT
                 (UTC) (F)     (DEG/KT/KT) (MB)    (FT)
BURNS HARBOR     0440   32      70/  7/  8 1027.1F
MICHIGAN CITY    0440   31     100/  5/  6   N/A

$$

INZ004-005-014>016-021>024-160600-
NORTH CENTRAL INDIANA

CITY           SKY/WX    TMP DP  RH WIND       PRES   REMARKS
GOSHEN         PTCLDY    30  21  69 SE5       30.32F WCI  25
LOGANSPORT +   MOCLDY    32  28  86 E5        30.32S WCI  27
PERU/GRISSOM   CLOUDY    32  30  91 SE6       30.29S WCI  26
ROCHESTER +    CLOUDY    32  28  86 E5        30.32S WCI  27
SOUTH BEND     PTCLDY    29  24  82 S3        30.33S
WARSAW +       CLOUDY    30  18  59 SE3       30.32F

$$

INZ006>009-017-018-025>027-160600-
NORTHEAST INDIANA

CITY           SKY/WX    TMP DP  RH WIND       PRES   REMARKS
ANGOLA *+      CLEAR     27  23  86 CALM      30.31F
AUBURN +       PTCLDY    30  25  80 CALM      30.34F
FORT WAYNE     CLOUDY    30  26  85 E5        30.33F WCI  25
HUNTINGTON +   CLOUDY    30  28  91 E3        30.32F
KENDALLVILLE + CLOUDY    29  24  83 S5        30.32F WCI  24

$$

INZ028-029-035-036-043>045-051>053-160600-
WEST CENTRAL INDIANA

CITY           SKY/WX    TMP DP  RH WIND       PRES   REMARKS
CRAWFORDSVL +  CLOUDY    32  32 100 E6        30.29F FOG     WCI  26
GREENCASTLE +  CLOUDY    34  32  93 E7        30.29S FOG     WCI  28
LAFAYETTE      CLOUDY    33  29  85 E5        30.30F WCI  29
TERRE HAUTE    CLOUDY    36  33  89 E5        30.28F FOG

$$

INZ030>032-037>040-046>048-054>057-064-065-160600-
CENTRAL INDIANA

CITY           SKY/WX    TMP DP  RH WIND       PRES   REMARKS
CP ATTERBURY + CLOUDY    36  34  93 CALM      30.31R FOG
FISHERS *+     CLOUDY    32  32 100 E5        30.30F WCI  27
FRANKFORT +    CLOUDY    35  32  89 SE9       30.31F WCI  28
GREENWOOD *+   CLOUDY    36  35  95 E5        30.29F
INDIANAPOLIS   CLOUDY    35  32  88 E5        30.30R FOG     WCI  31
-EAGLE CREEK   CLOUDY    35  31  85 E3        30.29S
KOKOMO +       CLOUDY    32  30  92 SE7       30.32S FOG     WCI  26
MARION +       CLOUDY    30  28  93 SE6       30.31F FOG     WCI  24
MT COMFORT *+  CLOUDY    32  32 100 E5        30.30S WCI  27
SHELBYVILLE    CLOUDY    36  32  85 E6        30.29F FOG
ZIONSVILLE +   CLOUDY    32  30  93 E5        30.30S FOG     WCI  27

$$

INZ033-034-041-042-049-050-058-059-160600-
EAST CENTRAL INDIANA

CITY           SKY/WX    TMP DP  RH WIND       PRES   REMARKS
MUNCIE         PTCLDY    33  30  88 SE3       30.31F FOG

$$

INZ060-061-067>069-081>083-085>088-160600-
SOUTHWEST INDIANA

CITY           SKY/WX    TMP DP  RH WIND       PRES   REMARKS
EVANSVILLE     CLOUDY    41  39  93 E5        30.26F
HUNTINGBURG *+ CLOUDY    39  38  96 E6        30.27F
WASHINGTON +   CLOUDY    38  37  94 E5        30.27F

$$

INZ062-063-066-070>080-084-089>092-160600-
SOUTH CENTRAL AND SOUTHEAST INDIANA

CITY           SKY/WX    TMP DP  RH WIND       PRES   REMARKS
BLOOMINGTON    CLOUDY    37  35  92 SE6       30.28S FOG
MADISON *+     CLOUDY    37  36  93 E6        30.30S
NORTH VERNON + CLOUDY   N/A N/A N/A E5        30.30F FOG
SEYMOUR +      CLOUDY    39  37  93 CALM      30.30S FOG

$$




USA.gov is the U.S. government's official web portal to all federal, state and local government web resources and services.